This is the latest recevied weather packets stored in our database for station/object N4AN. If no packets are shown the sender has not sent any weather packets the latest 10 day(s).
| Time | Temp. | Humidity | Pressure | Rain* | Wind** | Luminosity | Snow |
|---|---|---|---|---|---|---|---|
| 1788087568 | 29.44° C | 76% | 1010.2 hPa | 0 mm | - | - | - |
| 1788087268 | 30° C | 77% | 1010.1 hPa | 0 mm | - | - | - |
| 1788086966 | 30.56° C | 75% | 1009.9 hPa | 0 mm | - | - | - |
| 1788086662 | 30.56° C | 75% | 1009.9 hPa | 0 mm | - | - | - |
| 1788086362 | 30.56° C | 77% | 1009.7 hPa | 0 mm | - | - | - |
| 1788086062 | 30.56° C | 77% | 1009.7 hPa | 0 mm | - | - | - |
| 1788085761 | 30.56° C | 77% | 1009.7 hPa | 0 mm | - | - | - |
| 1788085460 | 30° C | 78% | 1009.8 hPa | 0 mm | - | - | - |
| 1788085160 | 30° C | 78% | 1009.8 hPa | 0 mm | - | - | - |
| 1788084860 | 30° C | 78% | 1009.7 hPa | 0 mm | - | - | - |
| 1788084560 | 29.44° C | 79% | 1009.6 hPa | 0 mm | - | - | - |
| 1788083959 | 29.44° C | 79% | 1009.6 hPa | 0 mm | - | - | - |
| 1788083659 | 29.44° C | 79% | 1009.4 hPa | 0 mm | - | - | - |
| 1788083357 | 29.44° C | 79% | 1009.4 hPa | 0 mm | - | - | - |
| 1788083059 | 28.33° C | 83% | 1009.4 hPa | 0 mm | - | - | - |
| 1788082756 | 28.33° C | 83% | 1009.4 hPa | 0 mm | - | - | - |
| 1788082456 | 28.33° C | 84% | 1009.3 hPa | 0 mm | - | - | - |
| 1788082156 | 28.33° C | 83% | 1009.3 hPa | 0 mm | - | - | - |
| 1788081856 | 28.33° C | 83% | 1009.5 hPa | 0 mm | - | - | - |
| 1788081555 | 28.33° C | 83% | 1009.5 hPa | 0 mm | - | - | - |
| 1788081255 | 28.33° C | 83% | 1009.5 hPa | 0 mm | - | - | - |
| 1788081131 | 28.33° C | 83% | 1009.5 hPa | 0 mm | - | - | - |
| 1788080955 | 28.33° C | 83% | 1009.5 hPa | 0 mm | - | - | - |
| 1788080654 | 28.33° C | 83% | 1009.6 hPa | 0 mm | - | - | - |
| 1788080354 | 28.33° C | 82% | 1009.6 hPa | 0 mm | - | - | - |
* Rain latest hour (hover to see other rain measurements)
** Current wind speed in m/s (hover to see current wind gust speed)